Regional Weather Roundup
Issued by NWS Newport/Morehead, NC

Current Version | Previous Version | Graphics & Text | Print | Product List | Glossary Off
Versions: 1 2 3 4 5 6 7 8 9 10 11 12 13 14 15 16 17 18 19 20 21 22 23 24 25 26 27 28 29 30 31 32 33 34 35 36 37 38 39 40 41 42 43 44 45 46 47 48 49 50
000 ASUS42 KMHX 261512 RWRMHX WEATHER ROUNDUP FOR EASTERN NORTH CAROLINA NATIONAL WEATHER SERVICE NEWPORT/MOREHEAD CITY NC 1100 AM EDT THU MAR 26 2015 NOTE: "FAIR" INDICATES FEW OR NO CLOUDS BELOW 12,000 FEET WITH NO SIGNIFICANT WEATHER AND/OR OBSTRUCTIONS TO VISIBILITY NCZ015>017-031-032-045>047-102-103-261600- NORTH COAST CITY SKY/WX TMP DP RH WIND PRES REMARKS EDENTON LGT RAIN 66 61 84 S15 29.97F ELIZABETH CITY CLOUDY 68 60 75 S14G23 29.98F KITTY HAWK CLOUDY 68 60 75 SE12G21 30.00S MANTEO CLOUDY 62 57 84 S15G23 30.01F $$ NCZ045>047-081-094-103-104-261600- CENTRAL COAST CITY SKY/WX TMP DP RH WIND PRES REMARKS FRISCO PTSUNNY 68 58 70 S23G32 30.04R SWANQUARTER N/A 66 N/A N/A SE12G22 29.97S $$ NCZ095-097-098-100-101-261600- SOUTHERN COAST CITY SKY/WX TMP DP RH WIND PRES REMARKS BEAUFORT RAIN 66 64 93 S21G33 30.00S CEDAR ISLAND N/A 68 N/A N/A SE16G30 30.03S JACKSONVILLE CLOUDY 70 63 78 S15G29 29.97F PINEY ISLAND CLOUDY N/A N/A N/A S22G35 30.00R WILMINGTON LGT RAIN 66 64 93 W9 29.98S FOG $$ NCZ011>013-027>030-043-044-078>080-089-090>093-098-261600- COASTAL PLAIN CITY SKY/WX TMP DP RH WIND PRES REMARKS AHOSKIE LGT RAIN 65 63 93 S10 29.95F CLINTON CLOUDY 64 62 93 CALM 29.98S ELIZABETHTOWN CLOUDY 67 63 87 S3 29.98F GOLDSBORO MOSUNNY 63 61 94 VRB2 29.95S GREENVILLE CLOUDY 68 66 94 S12G18 29.97F HAVELOCK LGT RAIN 70 64 81 S15G29 30.00R KENANSVILLE LGT RAIN 64 63 96 S5 29.99F KINSTON RAIN 68 66 94 S13 29.97S NEW BERN CLOUDY 73 64 73 S16G33 29.99S RICHLANDS CLOUDY 70 63 78 S16G24 29.98F ROCKY MOUNT LGT RAIN 63 62 97 S6 29.95F FOG WASHINGTON RAIN 66 64 93 SE10G18 29.97F WHITEVILLE CLOUDY 69 64 83 SW9 29.98S $$ AMZ130-135-150-152-154-156-158-170-250-252-270-ANZ085-086-088-633-658-670-261600- MARINE OBSERVATIONS STATION/POSITION TIME TEMP WIND PRES WAVE SWELL AIR SEA DIR/SP/G HT/PER HT/PER (UTC) (F) (DEG/KT/KT) (MB) (FT/S) (FT/S) CHESAPEAKE LIGHT 1400 50 180/ 26/ 26 1015.2 64 E VA BEACH 1450 61 54 170/ 21/ 25 1015.4 6/ 7 3/13 DUCK 1400 67 44 170/ 27/ 30 1014.8 2 E DUCK 1411 43 N/A 4/ 7 10 NE DUCK NOT AVBL OREGON INLET 1400 63 52 160/ 11/ 16 1016.9 HATTERAS CG 1400 68 56 160/ 19/ 23 1017.1 CAPE LOOKOUT 1500 65 160/ 33/ 37 1015.1 BEAUFORT LAB 1400 66 56 150/ 13/ 21 1014.9 27 SE WRIGHTSVLE 1400 65 65 190/ 12/ 17 1017.5 5 SE WRIGHTSVLE 1400 63 56 160/ 17/ 21 1014.3 225 S CAPE HAT 1450 70 69 170/ 23/ 27 1020.4 7/ 7 2/14 41 SE CHARLESTON 1450 67 70 240/ 12/ 14 1016.3 6/ 8 7/ 8 $$

USA.gov is the U.S. government's official web portal to all federal, state and local government web resources and services.